Regional Weather Roundup
Issued by NWS

Home | Current Version | Previous Version | Graphics & Text | Print | Product List | Glossary On
Versions: 1 2 3 4 5 6 7 8 9 10 11 12 13 14 15 16 17 18 19 20 21 22 23 24 25 26 27 28 29 30 31 32 33 34 35 36 37 38 39 40 41 42 43 44 45 46 47 48 49 50
000
ASUS45 KCYS 270210
RWRWY

WYOMING REGIONAL WEATHER ROUNDUP
NATIONAL WEATHER SERVICE CHEYENNE WY
700 PM MST FRI DEC 26 2014

NOTE:  "FAIR" INDICATES FEW OR NO CLOUDS BELOW 12,000 FEET
WITH NO SIGNIFICANT WEATHER AND/OR OBSTRUCTIONS TO VISIBILITY.

WYZ001-270300-
YELLOWSTONE NATIONAL PARK

CITY           SKY/WX    TMP DP  RH WIND       PRES   REMARKS
LK YELLOWSTONE   N/A     10   4  76 NW5       29.99R WCI   2
W YELLOWSTONE  NOT AVBL

$$
WYZ002>013-054>058-071-098>099-270300-
NORTHERN WYOMING

CITY           SKY/WX    TMP DP  RH WIND       PRES   REMARKS
JACKSON        CLOUDY    16  10  79 E5        30.02R WCI   9
CODY           CLOUDY    18  18 100 NE5       30.05R WCI  11
GREYBULL       CLOUDY    11   9  92 SE3       30.13R
WORLAND        FAIR       8   6  92 E3        30.10R
SHERIDAN       CLOUDY    13   7  77 SW3       30.09R
BUFFALO        CLOUDY    17  10  74 N6        30.04R WCI   9
GILLETTE       FAIR       5   3  91 SW5       30.06R WCI  -4
HULETT           N/A    N/A N/A N/A MISG        N/A
NEWCASTLE      FAIR      14  10  85 NW6       30.07R WCI   5

$$
WYZ014>020-022>026-101>103-270300-
CENTRAL WYOMING

CITY           SKY/WX    TMP DP  RH WIND       PRES   REMARKS
BIG PINEY      CLOUDY     6   2  83 N6        29.99R WCI  -4
PINEDALE       FLURRIES   0  -2  92 CALM      30.00R
DUBOIS         NOT AVBL
LANDER         CLOUDY    14  11  87 SE5       30.03R WCI   6
RIVERTON       CLOUDY    14  10  84 W7        30.05R WCI   4
CASPER         CLOUDY     9   6  88 CALM      30.05R
DOUGLAS        CLOUDY    15  11  83 NW9       30.05R WCI   3

$$
WYZ021-027>030-104>119-270300-
SOUTHERN WYOMING

CITY           SKY/WX    TMP DP  RH WIND       PRES   REMARKS
EVANSTON       CLOUDY    12   9  87 SW5       30.00R FOG     WCI   4
FORT BRIDGER   MOCLDY    11  10  94 W7        30.02R WCI   1
ROCK SPRINGS   CLOUDY    12   9  87 E3        30.00R
DIXON          CLOUDY    10   5  77 CALM      29.97R
RAWLINS        FLURRIES   9   5  84 CALM      29.96R
SARATOGA       LGT SNOW  10   9  92 NW7       29.96R WCI   0
LARAMIE        LGT SNOW   7   4  87 N6        29.91R FOG     WCI  -3
CHEYENNE       CLOUDY    12   7  80 NW6       29.96R HAZE    WCI   3
TORRINGTON     CLOUDY    17  14  88 NW5       30.06R WCI  10
PINE BLUFFS    LGT SNOW  14  12  92 NW3       30.02R

$$


USA.gov is the U.S. government's official web portal to all federal, state and local government web resources and services.